| time (UTC) | temp C | wind direction | speed KPH | gust KPH | rain 1hr cm | rain 24hr cm | rain mn cm | humidity % | barometer mb |
| 20260902124510 | 19 | 342 | 0.0 | 6.4 | 0.00 | 2.64 | 0.00 | 88 | 1019.4 |
| 20260902123008 | 18 | 340 | 0.0 | 4.8 | 0.00 | 2.64 | 0.00 | 90 | 1019.5 |
| 20260902121506 | 18 | 12 | 0.0 | 0.0 | 0.00 | 2.64 | 0.00 | 91 | 1019.4 |
| 20260902120003 | 18 | 4 | 0.0 | 4.8 | 0.00 | 2.64 | 0.00 | 93 | 1019.6 |
| 20260902114502 | 18 | 351 | 0.0 | 4.8 | 0.00 | 2.64 | 0.00 | 94 | 1019.8 |
| 20260902113057 | 17 | 356 | 0.0 | 0.0 | 0.00 | 2.64 | 0.00 | 94 | 1019.7 |
| 20260902111558 | 17 | 347 | 0.0 | 0.0 | 0.00 | 2.64 | 0.00 | 95 | 1019.5 |
| 20260902110059 | 17 | 351 | 0.0 | 0.0 | 0.00 | 2.64 | 0.00 | 95 | 1019.5 |
| 20260902104602 | 17 | 351 | 0.0 | 0.0 | 0.00 | 2.64 | 0.00 | 95 | 1019.2 |
| 20260902103105 | 16 | 351 | 0.0 | 0.0 | 0.00 | 2.64 | 0.00 | 95 | 1019.1 |
| 20260902101554 | 16 | 351 | 0.0 | 0.0 | 0.00 | 2.64 | 0.00 | 95 | 1018.9 |
| 20260902100046 | 16 | 351 | 0.0 | 0.0 | 0.00 | 2.64 | 0.00 | 95 | 1018.8 |
| 20260902094544 | 16 | 353 | 0.0 | 0.0 | 0.00 | 2.64 | 0.00 | 95 | 1018.7 |
| 20260902093042 | 16 | 346 | 0.0 | 0.0 | 0.00 | 2.64 | 0.00 | 95 | 1018.5 |
| 20260902091542 | 16 | 346 | 0.0 | 0.0 | 0.00 | 2.64 | 0.00 | 95 | 1018.4 |
| 20260902090042 | 16 | 346 | 0.0 | 0.0 | 0.00 | 2.64 | 0.00 | 95 | 1018.4 |
| 20260902084542 | 16 | 346 | 0.0 | 0.0 | 0.00 | 2.64 | 0.00 | 94 | 1018.4 |
| 20260902083044 | 16 | 343 | 0.0 | 0.0 | 0.00 | 2.64 | 0.00 | 94 | 1018.3 |
| 20260902081539 | 16 | 344 | 0.0 | 0.0 | 0.00 | 2.64 | 0.00 | 94 | 1018.2 |
| 20260902080040 | 16 | 344 | 0.0 | 0.0 | 0.00 | 2.64 | 0.00 | 93 | 1018.2 |
| 20260902074538 | 16 | 351 | 0.0 | 0.0 | 0.00 | 2.64 | 0.00 | 93 | 1018.3 |
| 20260902073036 | 16 | 349 | 0.0 | 0.0 | 0.00 | 2.64 | 0.00 | 92 | 1018.4 |
| 20260902071534 | 16 | 348 | 0.0 | 0.0 | 0.00 | 2.64 | 0.00 | 93 | 1018.3 |
| 20260902070033 | 16 | 343 | 0.0 | 0.0 | 0.00 | 2.64 | 0.00 | 94 | 1018.2 |
| 20260902064533 | 16 | 358 | 0.0 | 0.0 | 0.00 | 2.64 | 0.00 | 94 | 1018.2 |
| 20260902063050 | 16 | 358 | 0.0 | 0.0 | 0.00 | 2.64 | 0.00 | 94 | 1017.9 |
| 20260902061550 | 16 | 358 | 0.0 | 0.0 | 0.00 | 2.64 | 0.00 | 95 | 1018.1 |
| 20260902060038 | 16 | 358 | 0.0 | 0.0 | 0.00 | 2.64 | 0.00 | 95 | 1017.8 |
| 20260902054531 | 16 | 358 | 0.0 | 0.0 | 0.00 | 2.64 | 0.00 | 96 | 1017.8 |
| 20260902053034 | 16 | 358 | 0.0 | 0.0 | 0.00 | 2.64 | 0.00 | 96 | 1017.7 |
| 20260902051528 | 16 | 358 | 0.0 | 3.2 | 0.00 | 2.64 | 0.00 | 96 | 1017.7 |
| 20260902050026 | 16 | 353 | 0.0 | 0.0 | 0.00 | 2.64 | 0.00 | 97 | 1017.5 |
| 20260902044551 | 16 | 340 | 0.0 | 0.0 | 0.00 | 2.64 | 0.00 | 97 | 1017.5 |
| 20260902043022 | 16 | 343 | 0.0 | 0.0 | 0.00 | 2.64 | 0.00 | 96 | 1017.6 |
| 20260902041522 | 16 | 343 | 0.0 | 0.0 | 0.00 | 2.64 | 0.00 | 96 | 1017.7 |
| 20260902040018 | 16 | 343 | 0.0 | 0.0 | 0.00 | 2.64 | 2.64 | 96 | 1017.5 |
| 20260902034516 | 16 | 343 | 0.0 | 0.0 | 0.00 | 2.64 | 2.64 | 96 | 1017.2 |
| 20260902033015 | 16 | 343 | 0.0 | 0.0 | 0.00 | 2.64 | 2.64 | 96 | 1017.1 |
| 20260902031534 | 16 | 340 | 0.0 | 0.0 | 0.00 | 2.64 | 2.64 | 96 | 1017.1 |
| 20260902030011 | 16 | 340 | 0.0 | 0.0 | 0.00 | 2.64 | 2.64 | 96 | 1017.1 |
| 20260902024511 | 16 | 340 | 0.0 | 0.0 | 0.00 | 2.64 | 2.64 | 96 | 1016.9 |
| 20260902023020 | 16 | 339 | 0.0 | 0.0 | 0.00 | 2.64 | 2.64 | 96 | 1016.9 |
| 20260902021508 | 16 | 327 | 0.0 | 0.0 | 0.00 | 2.64 | 2.64 | 97 | 1016.8 |
| 20260902020009 | 16 | 326 | 0.0 | 0.0 | 0.00 | 2.64 | 2.64 | 97 | 1016.7 |
| 20260902014513 | 16 | 326 | 0.0 | 0.0 | 0.00 | 2.64 | 2.64 | 96 | 1016.8 |
| 20260902013007 | 16 | 326 | 0.0 | 0.0 | 0.00 | 2.64 | 2.64 | 96 | 1016.6 |
| 20260902012507 | 16 | 326 | 0.0 | 0.0 | 0.00 | 2.64 | 2.64 | 96 | 1016.5 |
| 20260902012006 | 16 | 326 | 0.0 | 0.0 | 0.00 | 2.64 | 2.64 | 96 | 1016.7 |
| 20260902011506 | 16 | 326 | 0.0 | 0.0 | 0.00 | 2.64 | 2.64 | 96 | 1016.7 |
| 20260902011006 | 16 | 326 | 0.0 | 0.0 | 0.00 | 2.64 | 2.64 | 96 | 1016.7 |
| 20260902010505 | 16 | 327 | 0.0 | 0.0 | 0.00 | 2.64 | 2.64 | 96 | 1016.7 |
| 20260902010005 | 16 | 327 | 0.0 | 0.0 | 0.00 | 2.64 | 2.64 | 96 | 1016.7 |
| 20260902005505 | 16 | 326 | 0.0 | 0.0 | 0.00 | 2.64 | 2.64 | 96 | 1016.6 |
| 20260902005006 | 16 | 326 | 0.0 | 0.0 | 0.00 | 2.64 | 2.64 | 96 | 1016.5 |
| 20260902004505 | 16 | 326 | 0.0 | 0.0 | 0.00 | 2.64 | 2.64 | 96 | 1016.5 |
| 20260902004005 | 16 | 326 | 0.0 | 0.0 | 0.00 | 2.64 | 2.64 | 96 | 1016.6 |
| 20260902003508 | 16 | 326 | 0.0 | 0.0 | 0.00 | 2.64 | 2.64 | 96 | 1016.6 |
| 20260902003005 | 16 | 326 | 0.0 | 0.0 | 0.00 | 2.64 | 2.64 | 96 | 1016.8 |
| 20260902002506 | 16 | 326 | 0.0 | 0.0 | 0.00 | 2.64 | 2.64 | 97 | 1016.5 |
| 20260902002003 | 16 | 326 | 0.0 | 0.0 | 0.00 | 2.64 | 2.64 | 97 | 1016.5 |
| 20260902001503 | 16 | 326 | 0.0 | 0.0 | 0.00 | 2.64 | 2.64 | 96 | 1016.5 |
| 20260902001003 | 16 | 326 | 0.0 | 0.0 | 0.00 | 2.64 | 2.64 | 97 | 1016.5 |
| 20260902000503 | 16 | 326 | 0.0 | 0.0 | 0.00 | 2.64 | 2.64 | 97 | 1016.5 |
| 20260902000007 | 16 | 326 | 0.0 | 0.0 | 0.00 | 2.64 | 2.64 | 96 | 1016.5 |
| 20260901235603 | 16 | 326 | 0.0 | 0.0 | 0.00 | 2.64 | 2.64 | 97 | 1016.4 |
| 20260901235002 | 16 | 326 | 0.0 | 0.0 | 0.00 | 2.64 | 2.64 | 96 | 1016.4 |
| 20260901234502 | 16 | 326 | 0.0 | 0.0 | 0.00 | 2.64 | 2.64 | 96 | 1016.3 |
| 20260901234002 | 16 | 326 | 0.0 | 0.0 | 0.00 | 2.64 | 2.64 | 97 | 1016.3 |
| 20260901233504 | 16 | 326 | 0.0 | 0.0 | 0.00 | 2.64 | 2.64 | 97 | 1016.2 |
| 20260901233005 | 16 | 327 | 0.0 | 0.0 | 0.00 | 2.64 | 2.64 | 97 | 1016.2 |
| 20260901232502 | 16 | 327 | 0.0 | 0.0 | 0.00 | 2.64 | 2.64 | 97 | 1016.1 |
| 20260901232001 | 16 | 327 | 0.0 | 0.0 | 0.00 | 2.64 | 2.64 | 97 | 1016.1 |
| 20260901231501 | 16 | 327 | 0.0 | 0.0 | 0.00 | 2.64 | 2.64 | 97 | 1016.3 |
| 20260901231003 | 16 | 327 | 0.0 | 0.0 | 0.00 | 2.64 | 2.64 | 97 | 1016.3 |
| 20260901230501 | 16 | 327 | 0.0 | 0.0 | 0.03 | 2.64 | 2.64 | 96 | 1016.4 |
| 20260901230003 | 16 | 327 | 0.0 | 0.0 | 0.03 | 2.64 | 2.64 | 96 | 1016.3 |
| 20260901225500 | 16 | 327 | 0.0 | 0.0 | 0.03 | 2.64 | 2.64 | 97 | 1016.4 |
| 20260901225100 | 16 | 327 | 0.0 | 0.0 | 0.03 | 2.64 | 2.64 | 96 | 1016.3 |
| 20260901224600 | 16 | 327 | 0.0 | 0.0 | 0.03 | 2.64 | 2.64 | 96 | 1016.3 |
| 20260901224101 | 16 | 328 | 0.0 | 0.0 | 0.03 | 2.64 | 2.64 | 96 | 1016.3 |
| 20260901223604 | 16 | 328 | 0.0 | 0.0 | 0.03 | 2.64 | 2.64 | 96 | 1016.2 |
| 20260901223100 | 16 | 290 | 0.0 | 0.0 | 0.03 | 2.64 | 2.64 | 96 | 1016.2 |
| 20260901222602 | 16 | 288 | 0.0 | 0.0 | 0.05 | 2.64 | 2.64 | 96 | 1016.2 |
| 20260901222059 | 16 | 288 | 0.0 | 0.0 | 0.05 | 2.64 | 2.64 | 96 | 1016.2 |
| 20260901221611 | 16 | 288 | 0.0 | 0.0 | 0.05 | 2.64 | 2.64 | 96 | 1016.2 |
| 20260901221059 | 16 | 300 | 0.0 | 0.0 | 0.05 | 2.64 | 2.64 | 96 | 1016.2 |
| 20260901220601 | 16 | 263 | 0.0 | 0.0 | 0.03 | 2.62 | 2.62 | 96 | 1016.4 |
| 20260901220059 | 16 | 263 | 0.0 | 0.0 | 0.05 | 2.62 | 2.62 | 96 | 1016.4 |
| 20260901215559 | 16 | 263 | 0.0 | 0.0 | 0.05 | 2.62 | 2.62 | 96 | 1016.3 |
| 20260901215058 | 16 | 221 | 0.0 | 0.0 | 0.05 | 2.62 | 2.62 | 96 | 1016.3 |
| 20260901214559 | 16 | 221 | 0.0 | 0.0 | 0.08 | 2.62 | 2.62 | 96 | 1016.4 |
| 20260901214058 | 16 | 221 | 0.0 | 0.0 | 0.08 | 2.62 | 2.62 | 96 | 1016.5 |
| 20260901213558 | 15 | 211 | 0.0 | 0.0 | 0.08 | 2.62 | 2.62 | 96 | 1016.4 |
| 20260901213058 | 16 | 241 | 0.0 | 0.0 | 0.08 | 2.62 | 2.62 | 95 | 1016.4 |
| 20260901212558 | 16 | 202 | 0.0 | 0.0 | 0.05 | 2.59 | 2.59 | 95 | 1016.3 |
| 20260901212058 | 16 | 322 | 0.0 | 0.0 | 0.05 | 2.59 | 2.59 | 95 | 1016.3 |
| 20260901211557 | 16 | 238 | 0.0 | 0.0 | 0.05 | 2.59 | 2.59 | 95 | 1016.3 |
| 20260901211056 | 16 | 188 | 0.0 | 0.0 | 0.05 | 2.59 | 2.59 | 95 | 1016.2 |
| 20260901210555 | 16 | 259 | 0.0 | 0.0 | 0.05 | 2.59 | 2.59 | 95 | 1016.2 |
| 20260901210053 | 16 | 233 | 0.0 | 0.0 | 0.03 | 2.57 | 2.57 | 95 | 1016.1 |
| 20260901205554 | 16 | 354 | 0.0 | 0.0 | 0.03 | 2.57 | 2.57 | 95 | 1016.1 |
| 20260901205052 | 16 | 38 | 0.0 | 0.0 | 0.05 | 2.57 | 2.57 | 95 | 1016.1 |
| 20260901204551 | 16 | 314 | 0.0 | 3.2 | 0.03 | 2.54 | 2.54 | 96 | 1016.0 |
| 20260901204051 | 17 | 324 | 0.0 | 3.2 | 0.05 | 2.54 | 2.54 | 96 | 1015.9 |
| 20260901203553 | 17 | 351 | 0.0 | 3.2 | 0.08 | 2.54 | 2.54 | 96 | 1015.8 |
| 20260901203056 | 17 | 268 | 0.0 | 0.0 | 0.10 | 2.54 | 2.54 | 96 | 1015.8 |
| 20260901202550 | 17 | 346 | 0.0 | 0.0 | 0.10 | 2.54 | 2.54 | 96 | 1015.9 |
| 20260901202056 | 17 | 346 | 0.0 | 0.0 | 0.13 | 2.54 | 2.54 | 96 | 1015.8 |
| 20260901201551 | 17 | 330 | 0.0 | 0.0 | 0.13 | 2.54 | 2.54 | 96 | 1015.7 |
| 20260901201050 | 17 | 330 | 0.0 | 0.0 | 0.13 | 2.54 | 2.54 | 96 | 1015.8 |
| 20260901200550 | 17 | 330 | 0.0 | 0.0 | 0.15 | 2.54 | 2.54 | 95 | 1015.8 |
| 20260901200050 | 17 | 330 | 0.0 | 0.0 | 0.20 | 2.54 | 2.54 | 96 | 1015.7 |
| 20260901195650 | 17 | 330 | 0.0 | 0.0 | 0.20 | 2.54 | 2.54 | 95 | 1015.8 |
| 20260901195049 | 17 | 340 | 0.0 | 0.0 | 0.20 | 2.51 | 2.51 | 95 | 1015.8 |
| 20260901194549 | 17 | 340 | 0.0 | 0.0 | 0.20 | 2.51 | 2.51 | 95 | 1015.8 |
| 20260901194049 | 17 | 335 | 0.0 | 0.0 | 0.18 | 2.49 | 2.49 | 95 | 1015.7 |
| 20260901193550 | 17 | 337 | 0.0 | 0.0 | 0.15 | 2.46 | 2.46 | 95 | 1015.7 |
| 20260901193048 | 17 | 308 | 0.0 | 0.0 | 0.13 | 2.44 | 2.44 | 95 | 1015.7 |
| 20260901192551 | 17 | 311 | 0.0 | 0.0 | 0.13 | 2.44 | 2.44 | 95 | 1015.6 |
| 20260901192050 | 17 | 311 | 0.0 | 0.0 | 0.10 | 2.41 | 2.41 | 95 | 1015.5 |
| 20260901191548 | 17 | 311 | 0.0 | 0.0 | 0.10 | 2.41 | 2.41 | 95 | 1015.5 |
| 20260901191049 | 17 | 344 | 0.0 | 0.0 | 0.10 | 2.41 | 2.41 | 95 | 1015.5 |
| 20260901190548 | 17 | 344 | 0.0 | 0.0 | 0.10 | 2.36 | 2.36 | 95 | 1015.4 |
| 20260901190048 | 17 | 15 | 0.0 | 0.0 | 0.15 | 2.34 | 2.34 | 95 | 1015.4 |
| 20260901185548 | 17 | 15 | 0.0 | 0.0 | 0.18 | 2.31 | 2.31 | 95 | 1015.4 |
| 20260901185047 | 17 | 17 | 0.0 | 0.0 | 0.23 | 2.31 | 2.31 | 95 | 1015.3 |
| 20260901184547 | 17 | 17 | 0.0 | 0.0 | 0.33 | 2.31 | 2.31 | 95 | 1015.3 |
| 20260901184048 | 17 | 17 | 0.0 | 0.0 | 0.36 | 2.31 | 2.31 | 95 | 1015.3 |
| 20260901183549 | 17 | 140 | 0.0 | 1.6 | 0.36 | 2.31 | 2.31 | 95 | 1015.2 |
| 20260901183110 | 17 | 282 | 0.0 | 1.6 | 0.36 | 2.31 | 2.31 | 95 | 1015.1 |
| 20260901182547 | 17 | 233 | 0.0 | 3.2 | 0.36 | 2.31 | 2.31 | 95 | 1015.3 |
| 20260901182051 | 17 | 309 | 0.0 | 3.2 | 0.36 | 2.31 | 2.31 | 95 | 1015.3 |
| 20260901181546 | 17 | 330 | 0.0 | 1.6 | 0.36 | 2.31 | 2.31 | 96 | 1015.3 |
| 20260901181046 | 17 | 346 | 0.0 | 1.6 | 0.36 | 2.31 | 2.31 | 96 | 1015.1 |
| 20260901180546 | 17 | 202 | 0.0 | 4.8 | 0.30 | 2.26 | 2.26 | 95 | 1014.9 |
| 20260901180046 | 17 | 355 | 0.0 | 4.8 | 0.23 | 2.18 | 2.18 | 94 | 1015.2 |
| 20260901175544 | 17 | 292 | 0.0 | 0.0 | 0.18 | 2.13 | 2.13 | 94 | 1014.7 |
| 20260901175044 | 17 | 195 | 0.0 | 0.0 | 0.13 | 2.08 | 2.08 | 93 | 1015.4 |
| 20260901174545 | 17 | 197 | 0.0 | 0.0 | 0.03 | 1.98 | 1.98 | 94 | 1015.8 |
| 20260901174043 | 17 | 197 | 0.0 | 0.0 | 0.00 | 1.96 | 1.96 | 93 | 1015.7 |
| 20260901173545 | 17 | 197 | 0.0 | 0.0 | 0.00 | 1.96 | 1.96 | 93 | 1015.6 |
| 20260901173052 | 17 | 195 | 0.0 | 0.0 | 0.00 | 1.96 | 1.96 | 93 | 1015.5 |
| 20260901172543 | 17 | 195 | 0.0 | 0.0 | 0.00 | 1.96 | 1.96 | 93 | 1015.5 |
| 20260901172043 | 17 | 187 | 0.0 | 0.0 | 0.00 | 1.96 | 1.96 | 93 | 1015.4 |
| 20260901171551 | 17 | 273 | 0.0 | 0.0 | 0.00 | 1.96 | 1.96 | 94 | 1015.3 |
| 20260901171042 | 17 | 190 | 0.0 | 0.0 | 0.00 | 1.96 | 1.96 | 93 | 1015.1 |
| 20260901170542 | 17 | 353 | 0.0 | 0.0 | 0.00 | 1.96 | 1.96 | 94 | 1015.1 |
| 20260901170052 | 17 | 15 | 0.0 | 0.0 | 0.00 | 1.96 | 1.96 | 94 | 1015.2 |
| 20260901165541 | 17 | 333 | 0.0 | 0.0 | 0.03 | 1.96 | 1.96 | 95 | 1015.4 |
| 20260901165041 | 17 | 332 | 0.0 | 0.0 | 0.03 | 1.96 | 1.96 | 94 | 1015.4 |
| 20260901164545 | 17 | 333 | 0.0 | 0.0 | 0.03 | 1.96 | 1.96 | 94 | 1015.4 |
| 20260901164041 | 17 | 333 | 0.0 | 0.0 | 0.05 | 1.96 | 1.96 | 94 | 1015.5 |
| 20260901163541 | 17 | 244 | 0.0 | 0.0 | 0.08 | 1.96 | 1.96 | 94 | 1015.5 |
| 20260901163103 | 17 | 322 | 0.0 | 0.0 | 0.18 | 1.96 | 1.96 | 94 | 1015.5 |
| 20260901162540 | 17 | 321 | 0.0 | 0.0 | 0.30 | 1.96 | 1.96 | 94 | 1015.5 |
| 20260901162041 | 17 | 204 | 0.0 | 1.6 | 0.41 | 1.96 | 1.96 | 95 | 1015.5 |
| 20260901161549 | 17 | 206 | 0.0 | 1.6 | 0.46 | 1.96 | 1.96 | 94 | 1015.5 |
| 20260901161040 | 17 | 267 | 0.0 | 3.2 | 0.46 | 1.96 | 1.96 | 94 | 1015.6 |
| 20260901160539 | 17 | 218 | 0.0 | 3.2 | 0.48 | 1.96 | 1.96 | 94 | 1015.5 |
| 20260901160041 | 17 | 240 | 0.0 | 4.8 | 0.51 | 1.96 | 1.96 | 94 | 1015.6 |
| 20260901155539 | 17 | 201 | 0.0 | 4.8 | 0.51 | 1.93 | 1.93 | 93 | 1015.7 |
| 20260901155039 | 17 | 265 | 0.0 | 0.0 | 0.53 | 1.93 | 1.93 | 94 | 1015.8 |
| 20260901154538 | 17 | 225 | 0.0 | 1.6 | 0.56 | 1.93 | 1.93 | 93 | 1015.8 |
| 20260901154041 | 17 | 351 | 0.0 | 4.8 | 0.56 | 1.91 | 1.91 | 93 | 1015.8 |
| 20260901153537 | 17 | 199 | 0.0 | 4.8 | 0.58 | 1.88 | 1.88 | 93 | 1015.8 |
| 20260901153036 | 18 | 294 | 0.0 | 3.2 | 0.51 | 1.78 | 1.78 | 93 | 1015.7 |
| 20260901152538 | 18 | 318 | 0.0 | 3.2 | 0.48 | 1.65 | 1.65 | 94 | 1015.9 |
| 20260901152033 | 18 | 299 | 0.0 | 1.6 | 0.43 | 1.52 | 1.52 | 94 | 1015.9 |
| 20260901151537 | 18 | 10 | 0.0 | 0.0 | 0.46 | 1.50 | 1.50 | 94 | 1015.8 |
| 20260901151032 | 18 | 247 | 0.0 | 0.0 | 0.58 | 1.50 | 1.50 | 94 | 1015.9 |
| 20260901150532 | 18 | 311 | 0.0 | 0.0 | 0.69 | 1.45 | 1.45 | 94 | 1015.8 |
| 20260901150033 | 18 | 288 | 0.0 | 0.0 | 0.71 | 1.42 | 1.42 | 94 | 1015.6 |
| 20260901145533 | 18 | 314 | 0.0 | 0.0 | 0.99 | 1.42 | 1.42 | 94 | 1015.7 |
| 20260901145030 | 18 | 316 | 0.0 | 0.0 | 0.99 | 1.40 | 1.40 | 94 | 1015.8 |
| 20260901144533 | 18 | 333 | 0.0 | 0.0 | 1.02 | 1.37 | 1.37 | 94 | 1015.7 |
| 20260901144032 | 18 | 336 | 0.0 | 0.0 | 1.02 | 1.35 | 1.35 | 94 | 1015.6 |
| 20260901143529 | 18 | 301 | 0.0 | 0.0 | 0.97 | 1.30 | 1.30 | 94 | 1015.6 |
| 20260901143029 | 19 | 324 | 0.0 | 0.0 | 0.94 | 1.24 | 1.24 | 93 | 1015.8 |
| 20260901142528 | 19 | 324 | 0.0 | 1.6 | 0.84 | 1.14 | 1.14 | 93 | 1016.0 |
| 20260901142028 | 19 | 334 | 0.0 | 3.2 | 0.81 | 1.09 | 1.09 | 93 | 1015.9 |
| 20260901141533 | 20 | 221 | 0.0 | 3.2 | 0.71 | 1.02 | 1.02 | 94 | 1015.8 |
| 20260901141024 | 20 | 220 | 0.0 | 1.6 | 0.64 | 0.89 | 0.89 | 93 | 1015.9 |
| 20260901140524 | 20 | 220 | 0.0 | 1.6 | 0.56 | 0.79 | 0.79 | 92 | 1016.3 |
| 20260901140024 | 20 | 308 | 0.0 | 0.0 | 0.46 | 0.66 | 0.66 | 94 | 1016.2 |
| 20260901135525 | 20 | 308 | 0.0 | 0.0 | 0.20 | 0.41 | 0.41 | 94 | 1016.0 |
| 20260901135022 | 20 | 308 | 0.0 | 0.0 | 0.25 | 0.38 | 0.38 | 94 | 1015.9 |
| 20260901134523 | 20 | 308 | 0.0 | 1.6 | 0.28 | 0.36 | 0.36 | 94 | 1015.6 |
| 20260901134022 | 20 | 308 | 0.0 | 1.6 | 0.25 | 0.33 | 0.33 | 94 | 1015.5 |
| 20260901133524 | 20 | 303 | 0.0 | 0.0 | 0.30 | 0.33 | 0.33 | 94 | 1015.4 |
| 20260901133022 | 20 | 303 | 0.0 | 0.0 | 0.30 | 0.30 | 0.30 | 94 | 1015.4 |
| 20260901132522 | 20 | 303 | 0.0 | 0.0 | 0.30 | 0.30 | 0.30 | 94 | 1015.4 |
| 20260901132022 | 20 | 302 | 0.0 | 0.0 | 0.28 | 0.28 | 0.28 | 94 | 1015.4 |
| 20260901131523 | 20 | 303 | 0.0 | 0.0 | 0.25 | 0.25 | 0.25 | 94 | 1015.5 |
| 20260901131022 | 20 | 303 | 0.0 | 0.0 | 0.25 | 0.25 | 0.25 | 93 | 1015.4 |
| 20260901130523 | 20 | 289 | 0.0 | 0.0 | 0.23 | 0.23 | 0.23 | 93 | 1015.4 |
| 20260901130021 | 21 | 289 | 0.0 | 0.0 | 0.20 | 0.20 | 0.20 | 92 | 1015.4 |